Regional Weather Roundup
Issued by NWS Midland/Odessa, TX

Skip options and go directly to product.
Home | Oldest Version | Next Version | Current Version | All | Text Only | Save Text | Print | Product List | Glossary On

Skip product version selection by date and time.   
744
ASUS44 KMAF 222210
RWRMAF
MIDLAND AREA WEATHER ROUNDUP
NATIONAL WEATHER SERVICE MIDLAND TX
500 PM CDT MON SEP 22 2014

...IN SOUTHWEST TEXAS AND SOUTHEAST NEW MEXICO...

CITY           SKY/WX    TMP DP  RH WIND       PRES   REMARKS
ALPINE         CLOUDY    75  58  55 SE13      30.28S
ANDREWS        CLOUDY    77  61  56 S14       30.19F
ARTESIA        NOT AVBL
BIG SPRING     MOSUNNY   84  60  44 E8        30.18F
CARLSBAD       LGT RAIN  71  71 100 S12       30.18S
DRYDEN           N/A     87  53  31 SE13      30.10F
FORT STOCKTON  CLOUDY    80  56  43 SE12      30.15F
GUAD PASS      LGT RAIN  63  62  97 NE21      30.37R FOG
HOBBS          CLOUDY    68  64  88 E9        30.23F
MARFA          PTSUNNY   75  57  53 E14       30.25F
MIDLAND AIRPK  NOT AVBL
MIDLAND INTL   PTSUNNY   81  59  47 SE12      30.17F
ODESSA         CLOUDY    79  57  46 SE12      30.18F
PECOS          PTSUNNY   81  60  49 SE13      30.12F
PRESIDIO       FAIR      83  62  49 NE17G25   30.07F
SEMINOLE       CLOUDY    72  64  74 SW8       30.22F
SNYDER         MOSUNNY   79  64  60 NE10      30.19S
WINK           CLOUDY    81  61  50 SE14G21   30.14F
$$
...OTHER STATIONS IN TEXAS...

CITY           SKY/WX    TMP DP  RH WIND       PRES   REMARKS
ABILENE        PTSUNNY   87  61  41 NE10      30.14F
AMARILLO       SUNNY     75  57  53 S14       30.23F
AUSTIN         PTSUNNY   91  68  46 NE13      30.03F
BROWNSVILLE    PTSUNNY   86  76  71 E10       29.97S
CORPUS CHRISTI PTSUNNY   89  67  47 E16G22    30.00S
DALLAS FTW     MOSUNNY   87  46  24 N8        30.11F
DEL RIO        SUNNY     90  60  36 MISG      30.04F
EL PASO        CLOUDY    70  64  81 E9        30.15F
HOUSTON INT    MOSUNNY   89  73  59 NE13      30.01S
LUBBOCK        PTSUNNY   75  62  64 SE12      30.22F
SAN ANGELO     PTSUNNY   88  64  44 NE12      30.12F
SAN ANTONIO    CLOUDY    93  63  36 N12       30.04F
WACO           SUNNY     89  60  37 NE6       30.07F
WICHITA FALLS  NOT AVBL
$$
...OTHER LOCATIONS IN NEW MEXICO...

CITY           SKY/WX    TMP DP  RH WIND       PRES   REMARKS
ALAMAGORDO     NOT AVBL
ALBUQUERQUE    PTSUNNY   79  54  41 S7        30.20S
CANNON AFB     PTSUNNY   71  59  67 S12       30.26S
CLOVIS           N/A     70  61  73 S14       30.27F
HOLLOMAN AFB   NOT AVBL
ROSWELL        CLOUDY    69  66  90 SE8       30.22S FOG
RUIDOSO        NOT AVBL
SANTA FE       PTSUNNY   74  52  46 S7        30.25F
TRUTH OR CONSE PTSUNNY   71  64  78 SE8       30.18F
TUCUMCARI      CLOUDY    74  61  63 S17       30.21F
$$

USA.gov is the U.S. government's official web portal to all federal, state and local government web resources and services.